Wind_Speed
20 20 21 21 21 20 19 17 18 21 19 19 24 21 21 19 18 17 18 18 21 22 23 16 16 17 21 24 17 22 16 10 17 15 7 17 24 25 26 6 7 5 3 2
21 21 21 20 19 18 18 16 16 19 17 18 20 19 18 17 18 15 18 15 19 23 19 12 16 21 16 18 17 20 20 8 11 10 4 13 21 23 20 13 6 4 2 1
21 21 21 19 18 18 17 16 13 18 15 18 18 19 19 19 19 14 18 14 18 20 18 17 17 20 20 16 15 16 14 7 7 9 20 22 19 20 18 18 4 9 4 9
22 22 22 20 17 17 16 14 11 15 15 16 16 18 18 19 20 17 18 17 18 19 17 18 18 17 18 17 15 15 18 13 19 12 10 10 11 15 15 17 12 4 11 12
20 21 20 19 18 17 15 15 14 13 14 15 14 15 17 18 19 18 17 18 17 16 16 17 19 18 16 18 16 16 20 21 24 13 8 17 12 14 13 16 11 8 12 14
21 21 19 17 16 15 16 13 12 12 14 14 13 14 16 18 19 18 19 21 19 14 17 16 16 15 12 14 17 19 17 22 22 8 18 17 2 7 8 11 11 11 10 11
20 21 19 16 15 14 16 14 12 12 13 14 12 13 17 17 19 19 20 23 21 20 19 17 17 12 10 9 13 15 17 19 11 11 16 4 4 11 10 11 12 12 11 11
18 19 17 16 16 15 16 14 12 12 12 13 13 13 17 16 19 21 20 24 20 23 20 16 11 9 8 6 10 13 14 13 10 6 11 18 17 8 8 14 21 13 5 9
18 19 18 17 16 16 17 15 12 12 12 11 13 12 16 16 18 21 20 24 20 24 19 15 6 4 8 5 9 12 13 14 11 8 4 4 6 10 15 19 19 3 12 17
16 18 18 17 16 16 17 15 12 12 13 11 13 11 16 16 18 21 21 24 20 24 19 13 6 6 9 6 8 8 15 12 13 12 9 12 15 13 17 8 10 16 24 22
15 17 19 18 16 16 16 14 12 11 12 13 12 11 16 16 16 20 22 24 23 18 18 9 7 9 8 11 15 14 10 9 5 5 6 9 12 18 17 22 24 26 23 20
15 18 21 22 19 17 15 12 10 10 12 13 12 11 16 14 15 20 22 22 23 18 15 19 13 21 20 18 10 13 8 15 13 11 21 21 23 22 23 23 25 21 20 18
13 18 22 24 21 17 12 9 10 10 12 10 10 12 14 14 16 19 24 26 30 27 25 24 18 14 16 13 15 20 20 22 21 27 26 25 22 24 23 22 22 19 18 18
12 17 22 25 22 15 9 10 13 9 12 7 13 12 8 15 19 19 25 29 33 31 27 26 24 20 17 19 20 23 21 25 25 31 24 26 25 20 18 20 20 21 18 18
10 15 20 25 22 15 13 15 10 9 11 15 19 10 9 21 21 21 28 32 35 35 30 28 22 23 15 16 16 14 19 21 21 28 23 25 26 22 20 21 22 22 21 17
10 13 17 23 23 18 18 14 10 12 14 18 17 14 12 21 23 26 31 35 38 37 29 26 18 10 11 10 14 13 22 23 24 26 24 25 25 25 23 23 25 25 22 17
11 11 15 20 24 20 18 15 14 15 17 19 12 8 16 28 25 28 33 37 39 33 25 12 12 11 12 19 18 15 25 26 25 25 26 24 23 23 23 26 26 25 23 19
12 12 14 17 22 23 21 16 11 19 19 13 7 16 23 26 31 35 40 41 36 25 14 12 13 15 12 11 15 21 28 28 25 22 23 22 22 20 21 23 24 25 24 20
13 13 15 17 21 25 23 16 11 19 14 11 10 22 24 34 39 41 43 39 22 15 12 13 9 12 7 15 18 28 28 29 25 20 21 22 21 20 20 22 25 27 23 20
14 15 16 18 22 25 22 12 10 11 14 14 15 26 29 36 40 42 36 17 10 10 7 10 10 8 7 13 25 30 28 29 25 21 22 23 22 22 21 24 26 25 21 17
15 16 17 18 21 24 12 6 8 8 9 11 25 32 36 37 38 38 16 13 10 5 5 7 6 5 12 24 30 31 29 30 26 24 24 24 23 23 23 23 24 22 19 15
15 17 19 21 19 10 6 4 6 7 8 23 32 36 36 38 36 26 14 10 6 6 7 7 6 7 22 29 33 32 30 30 26 24 25 25 24 24 24 23 20 19 16 15
17 19 19 10 9 8 4 4 10 12 20 26 35 39 38 30 29 17 8 6 7 11 6 6 6 16 30 30 36 32 31 31 29 25 24 25 24 25 25 22 19 18 14 13
20 18 11 7 7 8 7 12 19 25 26 33 42 35 31 34 23 9 8 8 8 6 7 12 20 30 31 32 36 33 32 31 30 27 26 26 25 26 25 21 18 17 14 13
22 11 9 11 10 13 17 21 27 29 34 37 42 36 31 22 11 7 9 6 7 9 11 30 34 34 33 34 38 38 34 32 31 29 27 27 25 26 25 21 17 16 14 13
27 22 15 15 20 25 27 29 33 31 33 38 38 30 12 8 6 7 10 7 9 22 36 35 35 37 34 34 38 40 35 31 30 29 28 27 26 26 24 20 17 15 14 13
30 29 29 28 28 27 28 32 27 31 35 34 37 12 9 12 10 10 11 22 36 36 33 37 39 38 34 33 38 37 36 32 29 28 28 27 26 26 23 18 16 14 13 13
Wind_Direction
322 325 327 331 333 338 337 351 343 340 352 357 4 14 14 9 5 2 360 2 360 359 357 351 0 341 338 341 340 350 347 311 314 328 346 8 1 6 12 10 335 346 299 232
321 322 324 328 326 330 333 345 345 343 350 355 5 10 9 8 3 360 358 359 1 359 2 354 354 356 347 345 351 354 341 320 323 347 335 339 340 346 355 7 342 18 327 230
319 318 320 324 323 325 330 341 347 346 346 351 358 5 7 6 4 357 355 353 356 357 1 359 355 355 359 359 353 349 354 356 335 292 292 302 304 319 337 355 342 311 291 307
319 318 320 320 319 322 328 334 342 340 335 347 353 1 4 5 4 359 355 350 349 349 355 354 347 357 5 11 1 3 11 358 337 349 2 336 312 301 319 338 344 321 313 309
319 318 319 319 318 317 327 318 327 336 340 343 344 354 2 4 5 360 357 350 343 336 339 346 343 347 1 4 8 8 10 353 346 351 327 329 297 284 306 325 323 336 331 331
320 317 316 315 310 313 322 315 313 327 335 338 338 342 355 1 2 0 0 354 346 332 334 325 329 342 344 352 354 5 1 354 343 312 332 325 261 271 306 329 334 310 328 345
323 317 314 310 306 312 316 312 304 315 326 334 328 328 347 355 359 355 358 356 348 340 333 322 317 313 332 337 3 360 355 346 330 307 341 5 288 308 302 320 333 318 301 328
326 319 318 311 307 310 311 308 300 305 316 329 327 319 338 343 351 356 354 354 349 344 334 329 314 304 308 316 350 353 352 339 325 297 307 290 288 278 302 319 324 316 294 329
332 323 319 307 307 308 309 308 298 300 311 327 328 320 329 334 339 347 350 351 347 347 340 332 290 299 297 324 325 330 339 326 303 299 290 267 282 294 302 314 310 354 329 317
338 334 325 316 311 306 307 307 296 299 306 311 322 321 325 328 334 337 342 345 345 347 343 322 294 279 286 298 303 315 320 306 283 278 258 264 274 303 312 297 296 291 309 309
350 345 342 335 323 309 307 307 297 304 311 307 315 317 330 326 334 338 338 343 343 343 343 324 323 287 285 285 295 301 305 305 286 278 258 281 291 299 292 311 299 290 293 295
348 352 348 344 335 315 311 302 298 307 314 309 314 320 330 325 342 342 343 336 334 324 327 321 308 291 291 286 292 302 298 308 292 279 293 306 304 292 295 305 322 296 288 287
349 353 351 347 344 328 315 304 308 303 321 315 323 324 331 330 337 344 340 341 332 322 319 317 313 297 289 286 298 301 306 305 297 308 332 322 302 295 287 298 319 313 287 283
349 352 351 349 350 340 330 324 315 293 321 314 336 325 335 347 338 336 341 340 334 324 312 310 308 300 294 285 295 312 313 298 307 314 328 313 316 307 283 295 310 322 300 279
338 348 350 348 349 344 332 330 320 299 311 315 330 309 302 344 339 330 336 335 332 326 312 307 305 298 287 291 293 333 329 321 305 315 315 315 316 310 300 298 304 314 315 286
319 343 346 345 345 345 335 337 334 321 315 322 327 316 302 324 329 327 327 329 327 322 311 307 302 298 282 271 285 332 335 331 314 317 317 321 317 306 298 296 302 311 312 288
304 327 338 343 341 342 342 336 332 338 328 326 318 311 322 325 321 322 322 324 323 320 310 299 297 293 276 282 302 314 331 334 321 313 312 323 315 304 294 293 302 308 309 293
290 312 327 337 333 335 337 330 330 350 339 330 312 328 324 330 327 323 325 323 322 315 294 292 293 294 284 297 320 323 329 334 324 311 311 319 319 309 297 296 301 306 307 292
282 302 316 328 324 329 328 319 310 336 327 316 307 329 328 330 331 327 326 321 314 302 287 287 287 296 288 320 329 328 332 334 326 318 316 322 324 318 306 300 302 307 306 294
278 296 312 318 322 320 317 307 319 321 317 310 313 327 323 326 331 326 325 307 301 296 290 291 278 285 292 329 338 338 339 341 331 325 322 325 327 323 312 303 304 308 307 295
273 291 304 310 309 310 302 280 331 312 311 318 326 325 322 323 325 323 314 297 288 276 274 281 264 279 335 337 339 340 338 341 340 330 325 327 327 326 317 308 307 307 304 296
271 289 299 308 307 279 251 280 307 312 308 321 324 323 322 320 321 320 306 279 265 263 280 265 255 320 335 340 337 338 336 335 338 337 331 328 326 328 322 314 309 306 302 296
273 286 299 296 282 255 241 308 318 320 317 325 333 326 323 318 321 302 277 265 253 292 254 256 252 312 334 332 334 334 333 331 331 332 331 328 325 326 325 318 309 305 300 293
262 279 268 261 256 254 247 319 329 330 328 329 327 321 313 313 313 280 271 265 284 255 244 312 307 311 326 326 331 330 326 325 326 325 327 327 323 324 323 317 307 302 296 289
257 256 244 243 255 267 280 305 317 319 317 320 329 322 316 299 273 262 272 262 250 245 289 320 318 320 320 320 324 326 321 320 319 319 323 324 321 321 321 315 306 300 290 283
254 240 230 250 263 280 285 288 301 311 315 318 322 323 294 272 247 241 248 246 271 305 314 318 316 317 317 315 318 323 320 321 315 314 318 320 318 318 318 312 305 297 286 280
242 248 257 264 270 271 273 290 301 299 312 311 315 309 273 283 268 246 249 282 303 309 311 311 314 315 316 313 318 321 325 319 313 312 316 317 315 316 315 308 302 294 283 276
Height
3145 3141 3139 3135 3130 3126 3122 3115 3114 3114 3109 3107 3098 3094 3092 3089 3086 3082 3078 3073 3068 3064 3059 3054 3051 3048 3044 3038 3034 3028 3025 3021 3015 3012 3010 3007 3006 3004 3001 2999 2999 2995 2994 2995
3142 3138 3135 3131 3127 3123 3119 3114 3110 3110 3107 3104 3099 3096 3093 3089 3085 3081 3077 3073 3069 3064 3060 3055 3050 3047 3043 3039 3035 3030 3025 3021 3016 3011 3012 3009 3007 3005 3004 3002 3000 2998 2998 2997
3139 3134 3130 3128 3125 3121 3118 3111 3107 3107 3105 3102 3099 3095 3092 3087 3083 3079 3075 3072 3067 3064 3060 3055 3051 3047 3043 3038 3034 3031 3026 3023 3022 3019 3013 3011 3008 3006 3004 3003 3001 2998 2996 2994
3136 3132 3128 3125 3122 3119 3117 3111 3105 3105 3104 3099 3097 3094 3090 3086 3082 3078 3073 3068 3065 3062 3058 3053 3050 3047 3042 3038 3034 3030 3026 3023 3018 3014 3010 3008 3006 3004 3003 3001 3000 2998 2996 2993
3131 3128 3123 3122 3119 3117 3112 3111 3106 3102 3101 3098 3096 3093 3089 3085 3081 3078 3073 3069 3064 3061 3058 3055 3049 3045 3041 3039 3035 3031 3026 3022 3016 3011 3009 3007 3005 3002 3001 3000 2998 2996 2993 2990
3127 3124 3120 3118 3114 3114 3108 3107 3104 3100 3099 3095 3093 3092 3087 3083 3080 3077 3072 3067 3063 3059 3056 3052 3049 3045 3041 3037 3032 3027 3024 3021 3017 3011 3008 3003 3003 3001 3000 2998 2996 2994 2992 2991
3123 3122 3118 3116 3112 3109 3107 3103 3101 3098 3096 3093 3092 3089 3085 3082 3078 3075 3070 3065 3060 3058 3052 3049 3045 3042 3038 3036 3032 3028 3023 3022 3019 3013 3008 3008 3002 3000 2998 2996 2993 2991 2989 2988
3120 3119 3115 3113 3110 3106 3104 3100 3099 3096 3093 3091 3088 3086 3083 3080 3077 3073 3068 3063 3059 3054 3049 3045 3040 3037 3036 3032 3029 3026 3024 3022 3019 3016 3011 3004 2998 2998 2997 2993 2991 2987 2986 2985
3117 3115 3111 3109 3106 3103 3101 3098 3096 3094 3091 3089 3086 3083 3081 3078 3074 3071 3067 3061 3056 3052 3046 3043 3040 3037 3033 3030 3027 3025 3022 3020 3019 3015 3012 3006 2997 2996 2994 2991 2986 2985 2985 2984
3115 3112 3109 3106 3102 3099 3097 3094 3092 3090 3088 3086 3084 3081 3079 3076 3072 3068 3063 3059 3054 3050 3045 3040 3038 3035 3033 3028 3025 3021 3020 3016 3014 3012 3008 2999 2995 2994 2992 2991 2990 2983 2981 2980
3113 3111 3107 3103 3098 3096 3094 3092 3089 3088 3085 3083 3081 3078 3076 3073 3070 3067 3062 3057 3050 3046 3043 3040 3038 3032 3030 3026 3023 3020 3018 3015 3011 3008 3006 2997 2991 2989 2989 2986 2980 2977 2976 2975
3112 3108 3105 3101 3096 3093 3090 3088 3086 3084 3083 3081 3078 3076 3074 3071 3068 3064 3060 3057 3052 3048 3044 3041 3035 3031 3027 3023 3020 3016 3013 3011 3009 3006 2996 2992 2987 2983 2981 2978 2975 2971 2970 2969
3110 3107 3103 3099 3093 3090 3087 3085 3084 3082 3080 3078 3075 3073 3071 3068 3065 3062 3058 3052 3048 3043 3039 3035 3031 3028 3022 3020 3015 3011 3007 3004 3000 2996 2991 2987 2983 2978 2976 2973 2970 2967 2965 2964
3107 3105 3102 3098 3092 3088 3085 3083 3081 3079 3077 3075 3073 3070 3068 3066 3062 3058 3053 3048 3042 3038 3033 3029 3025 3023 3018 3014 3013 3009 3006 2999 2994 2987 2985 2979 2976 2971 2970 2968 2965 2963 2960 2958
3105 3102 3100 3096 3092 3087 3084 3081 3078 3077 3077 3073 3068 3066 3065 3062 3059 3054 3048 3042 3037 3031 3025 3021 3019 3015 3013 3009 3006 3003 3000 2995 2990 2983 2979 2975 2970 2966 2964 2963 2961 2958 2955 2953
3102 3099 3097 3095 3090 3086 3082 3079 3077 3074 3071 3069 3065 3062 3061 3058 3054 3049 3044 3037 3031 3025 3019 3014 3010 3010 3010 3004 2999 2998 2994 2989 2984 2980 2974 2969 2964 2961 2958 2957 2955 2952 2950 2947
3099 3096 3094 3093 3089 3084 3081 3079 3075 3071 3069 3066 3062 3059 3058 3054 3049 3045 3039 3032 3025 3018 3012 3007 3006 3005 3005 2998 2994 2992 2989 2984 2978 2974 2969 2965 2960 2955 2952 2950 2948 2946 2943 2941
3096 3093 3091 3089 3086 3082 3078 3074 3072 3069 3067 3064 3061 3058 3054 3049 3044 3038 3030 3023 3016 3009 3006 3004 3002 3000 2998 2993 2990 2988 2983 2978 2973 2968 2964 2960 2955 2950 2947 2945 2942 2939 2936 2933
3091 3090 3087 3085 3083 3079 3075 3071 3069 3067 3068 3062 3059 3055 3050 3042 3037 3031 3022 3013 3008 3004 3001 3000 2999 2995 2992 2990 2987 2983 2977 2972 2966 2963 2959 2955 2950 2944 2941 2938 2935 2932 2929 2925
3086 3086 3084 3081 3079 3075 3071 3067 3066 3062 3061 3057 3055 3051 3047 3042 3033 3024 3018 3008 3004 2999 2998 2995 2991 2988 2988 2986 2982 2977 2972 2966 2961 2957 2953 2948 2944 2939 2935 2932 2929 2925 2922 2920
3081 3080 3079 3077 3074 3070 3066 3064 3063 3060 3058 3054 3051 3047 3041 3035 3030 3022 3017 3009 3003 2998 2996 2994 2987 2983 2983 2980 2975 2970 2965 2960 2955 2951 2947 2943 2938 2933 2929 2925 2922 2919 2916 2914
3076 3076 3074 3073 3069 3065 3064 3062 3061 3058 3055 3051 3046 3042 3037 3030 3023 3016 3010 3006 3002 2996 2993 2990 2981 2980 2977 2973 2969 2964 2959 2955 2950 2945 2941 2937 2932 2928 2923 2919 2916 2913 2910 2909
3071 3071 3070 3069 3066 3063 3061 3059 3059 3056 3052 3048 3042 3037 3032 3024 3020 3012 3008 3002 2998 2995 2990 2983 2979 2975 2971 2967 2963 2958 2953 2948 2943 2939 2935 2931 2927 2922 2918 2913 2910 2907 2906 2904
3067 3066 3065 3063 3060 3058 3057 3056 3054 3051 3046 3042 3037 3032 3027 3020 3015 3010 3005 2999 2996 2990 2983 2978 2975 2971 2966 2962 2957 2952 2947 2942 2937 2933 2928 2924 2921 2916 2912 2908 2904 2902 2901 2900
3061 3061 3057 3054 3055 3054 3053 3050 3048 3045 3041 3036 3030 3025 3019 3015 3010 3006 3001 2996 2988 2981 2976 2973 2969 2964 2959 2955 2950 2945 2939 2935 2931 2926 2922 2918 2914 2910 2906 2902 2899 2897 2896 2895
3053 3049 3048 3050 3050 3050 3048 3044 3042 3040 3035 3031 3025 3018 3011 3007 3005 3000 2996 2990 2981 2976 2972 2967 2962 2958 2953 2948 2943 2938 2932 2927 2924 2920 2916 2911 2907 2903 2899 2896 2894 2892 2891 2890
3037 3037 3041 3043 3044 3043 3040 3039 3036 3033 3030 3026 3021 3015 3011 3004 2996 2990 2984 2979 2976 2970 2965 2961 2955 2950 2945 2941 2936 2930 2925 2920 2916 2913 2909 2905 2901 2897 2893 2890 2888 2886 2886 2885